Location: Dover
(48.8500°N, 53.9833°W)
Time: 16:37:38
(UTC+00:00)

SJ-7 - Pass Details

Date: 14 November 2025
Orbit: 500 x 522 km, 97.7° (Epoch: 12 December)

Event Time Altitude Azimuth Distance (km) Brightness Sun altitude
Rises 21:43:17 0° 160° (SSE) 2,588 7.6 -17.5°
Reaches altitude 10° 21:45:22 10° 158° (SSE) 1,707 6.7 -17.8°
Maximum altitude 21:49:01 72° 75° (ENE) 533 4.0 -18.4°
Drops below altitude 10° 21:52:42 10° 350° (N) 1,719 6.9 -19.0°
Sets 21:54:48 0° 349° (N) 2,609 7.8 -19.4°
